| time (UTC) | temp F | wind direction | speed knots | gust knots | rain 1hr in | rain 24hr in | rain mn in | humidity % | barometer mb |
| 20260504044528 | 53 | 0 | 0.0 | 0.9 | 0.00 | 0.00 | 0.00 | 65 | 1016.6 |
| 20260504043030 | 53 | 0 | 0.0 | 0.0 | 0.00 | 0.00 | 0.00 | 65 | 1016.9 |
| 20260504041534 | 54 | 0 | 0.0 | 0.9 | 0.00 | 0.00 | 0.00 | 63 | 1016.9 |
| 20260504040030 | 54 | 0 | 0.0 | 0.0 | 0.00 | 0.00 | 0.00 | 63 | 1017.1 |
| 20260504034539 | 55 | 0 | 0.0 | 0.0 | 0.00 | 0.00 | 0.00 | 62 | 1017.1 |
| 20260504033030 | 55 | 0 | 0.0 | 1.7 | 0.00 | 0.00 | 0.00 | 62 | 1017.0 |
| 20260504031528 | 55 | 0 | 0.0 | 1.7 | 0.00 | 0.00 | 0.00 | 61 | 1017.1 |
| 20260504030036 | 56 | 0 | 0.0 | 0.9 | 0.00 | 0.00 | 0.00 | 60 | 1016.7 |
| 20260504024530 | 56 | 0 | 0.0 | 0.9 | 0.00 | 0.00 | 0.00 | 59 | 1016.9 |
| 20260504023027 | 57 | 0 | 0.0 | 0.9 | 0.00 | 0.00 | 0.00 | 59 | 1016.9 |
| 20260504021537 | 58 | 0 | 0.0 | 0.0 | 0.00 | 0.00 | 0.00 | 57 | 1016.7 |
| 20260504020036 | 59 | 0 | 0.0 | 0.0 | 0.00 | 0.00 | 0.00 | 56 | 1016.6 |
| 20260504014527 | 60 | 0 | 0.0 | 0.0 | 0.00 | 0.00 | 0.00 | 54 | 1016.3 |
| 20260504013035 | 61 | 0 | 0.0 | 0.0 | 0.00 | 0.00 | 0.00 | 52 | 1016.2 |
| 20260504011530 | 61 | 0 | 0.0 | 0.0 | 0.00 | 0.00 | 0.00 | 50 | 1016.1 |
| 20260504010027 | 62 | 0 | 0.0 | 0.0 | 0.00 | 0.00 | 0.00 | 49 | 1016.1 |
| 20260504004541 | 64 | 0 | 0.0 | 0.0 | 0.00 | 0.00 | 0.00 | 48 | 1016.0 |
| 20260504003028 | 65 | 0 | 0.0 | 0.0 | 0.00 | 0.00 | 0.00 | 45 | 1015.9 |
| 20260504001535 | 66 | 0 | 0.0 | 0.0 | 0.00 | 0.00 | 0.00 | 44 | 1015.7 |
| 20260504000029 | 67 | 0 | 0.0 | 0.9 | 0.00 | 0.00 | 0.00 | 43 | 1015.6 |
| 20260503234529 | 67 | 0 | 0.0 | 0.9 | 0.00 | 0.00 | 0.00 | 43 | 1015.6 |
| 20260503233029 | 68 | 0 | 0.0 | 1.7 | 0.00 | 0.00 | 0.00 | 42 | 1015.7 |
| 20260503231530 | 68 | 213 | 0.0 | 2.6 | 0.00 | 0.00 | 0.00 | 42 | 1015.6 |
| 20260503230028 | 68 | 242 | 0.9 | 4.3 | 0.00 | 0.00 | 0.00 | 42 | 1015.7 |
| 20260503224528 | 68 | 195 | 1.7 | 7.8 | 0.00 | 0.00 | 0.00 | 41 | 1015.7 |
| 20260503223028 | 68 | 218 | 0.9 | 7.0 | 0.00 | 0.00 | 0.00 | 42 | 1015.8 |
| 20260503221532 | 69 | 0 | 1.7 | 11.3 | 0.00 | 0.00 | 0.00 | 42 | 1015.8 |
| 20260503220034 | 69 | 167 | 0.9 | 8.7 | 0.00 | 0.00 | 0.00 | 42 | 1015.9 |
| 20260503214541 | 69 | 215 | 1.7 | 8.7 | 0.00 | 0.00 | 0.00 | 43 | 1016.1 |
| 20260503213033 | 69 | 0 | 0.0 | 7.8 | 0.00 | 0.00 | 0.00 | 42 | 1016.2 |
| 20260503211528 | 68 | 0 | 0.9 | 8.7 | 0.00 | 0.00 | 0.00 | 44 | 1016.3 |
| 20260503210027 | 67 | 0 | 0.0 | 3.5 | 0.00 | 0.00 | 0.00 | 44 | 1016.3 |
| 20260503204530 | 68 | 217 | 0.9 | 6.1 | 0.00 | 0.00 | 0.00 | 43 | 1016.5 |
| 20260503203029 | 68 | 0 | 4.3 | 12.2 | 0.00 | 0.00 | 0.00 | 41 | 1016.8 |
| 20260503201534 | 68 | 290 | 4.3 | 12.2 | 0.00 | 0.00 | 0.00 | 39 | 1017.0 |
| 20260503200028 | 68 | 224 | 0.9 | 6.1 | 0.00 | 0.00 | 0.00 | 42 | 1017.3 |
| 20260503194534 | 68 | 0 | 0.0 | 6.1 | 0.00 | 0.00 | 0.00 | 43 | 1017.5 |
| 20260503193030 | 67 | 311 | 0.9 | 9.6 | 0.00 | 0.00 | 0.00 | 43 | 1017.7 |
| 20260503191527 | 67 | 217 | 2.6 | 13.9 | 0.00 | 0.00 | 0.00 | 42 | 1018.1 |
| 20260503190038 | 67 | 286 | 1.7 | 7.8 | 0.00 | 0.00 | 0.00 | 40 | 1018.1 |
| 20260503184530 | 66 | 295 | 1.7 | 11.3 | 0.00 | 0.00 | 0.00 | 40 | 1018.3 |
| 20260503183036 | 66 | 238 | 2.6 | 12.2 | 0.00 | 0.00 | 0.00 | 41 | 1018.5 |
| 20260503181549 | 66 | 171 | 1.7 | 6.1 | 0.00 | 0.00 | 0.00 | 42 | 1018.5 |
| 20260503180041 | 65 | 233 | 2.6 | 11.3 | 0.00 | 0.00 | 0.00 | 43 | 1018.6 |
| 20260503174529 | 65 | 238 | 3.5 | 7.8 | 0.00 | 0.00 | 0.00 | 44 | 1018.7 |
| 20260503173027 | 63 | 336 | 0.9 | 10.4 | 0.00 | 0.00 | 0.00 | 43 | 1018.9 |
| 20260503171530 | 63 | 266 | 4.3 | 9.6 | 0.00 | 0.00 | 0.00 | 41 | 1019.3 |
| 20260503081529 | 42 | 0 | 0.0 | 0.0 | 0.00 | 0.01 | 0.00 | 85 | 1017.3 |
| 20260503071527 | 44 | 0 | 0.0 | 0.0 | 0.00 | 0.01 | 0.00 | 82 | 1016.6 |
| 20260503054537 | 46 | 0 | 0.0 | 0.0 | 0.00 | 0.01 | 0.00 | 82 | 1016.6 |
| 20260503053030 | 46 | 0 | 0.0 | 0.0 | 0.00 | 0.01 | 0.00 | 81 | 1016.6 |